National Weather Service United States Department of Commerce


519
ASUS42 KCAE 070910
RWRCAE
REGIONAL WEATHER ROUNDUP
NATIONAL WEATHER SERVICE COLUMBIA SC
500 AM EDT FRI MAY 07 2021

NOTE: "FAIR" INDICATES FEW OR NO CLOUDS BELOW 12,000 FEET WITH NO
SIGNIFICANT WEATHER AND/OR OBSTRUCTIONS TO VISIBILITY.

NOT ALL STATIONS ARE QUALITY CONTROLLED BY THE NATIONAL
WEATHER SERVICE. USE DATA WITH CAUTION...ESPECIALLY
DEWPOINT OBSERVATIONS.

SCZ001>059-115-116-135>137-GAZ040-063>065-077-071000-
...UPSTATE SOUTH CAROLINA...

CITY SKY/WX TMP DP RH WIND PRES REMARKS
ANDERSON CLEAR 53 42 66 W8 29.91R
LIBERTY PTCLDY 46 46 100 N6 29.90S
SPARTANBURG MOCLDY 54 41 62 NW5 29.89S
CLEMSON PTCLDY 54 39 57 W10 29.92R
GREENVILLE MOCLDY 55 41 59 N5 29.91R
GREENWOOD CLEAR 46 44 93 CALM 29.91S
GREER CLOUDY 55 37 50 N3 29.90S
ROCK HILL MOCLDY 54 51 90 NE3 29.87S
CHESTER MOCLDY 52 48 87 NW3 29.87F
LAURENS PTCLDY 50 43 76 CALM 29.89F


...CENTRAL SOUTH CAROLINA...

CITY SKY/WX TMP DP RH WIND PRES REMARKS
COLUMBIA APT PTCLDY 53 46 77 W6 29.87R
COLUMBIA OWENS PTCLDY 54 49 83 CALM 29.88R
MCENTIRE ANGB PTCLDY 51 50 95 NW5 29.85S
ORANGEBURG CLEAR 56 46 69 W7 29.89R
SUMTER SHAW PTCLDY 55 47 74 SW9 29.84F
AIKEN FAIR 50 44 80 W7 29.91F
BARNWELL FAIR 52 46 82 CALM 29.91S
MANNING FAIR 57 55 94 CALM 29.85F
CAMDEN FAIR 52 50 93 CALM 29.86S
LANCASTER N/A 54 50 87 CALM 29.85F
WINNSBORO PTCLDY 52 46 82 NW5 29.86F


...EASTERN AND COASTAL SOUTH CAROLINA...

CITY SKY/WX TMP DP RH WIND PRES REMARKS
MYRTLE BEACH MOCLDY 60 58 92 NW3 29.86F
N MYRTLE BCH PTCLDY 58 56 93 CALM 29.84F
CONWAY FAIR 54 54 100 CALM 29.86S
MARION FAIR 55 55 100 NE3 29.86S
HARTSVILLE CLOUDY 59 55 88 CALM 29.85F
FLORENCE PTCLDY 56 53 90 CALM 29.85F
DARLINGTON MOCLDY 58 56 93 CALM 29.86S
CHARLESTON APT PTCLDY 60 53 77 W6 29.87F
MOUNT PLEASANT FAIR 64 63 94 W7 29.86S
WALTERBORO CLEAR 55 46 71 W6 29.90S
BEAUFORT CLEAR 60 45 57 W9 29.90F
HILTON HEAD CLEAR 63 45 51 W6 29.92S


...EASTERN GEORGIA...

CITY SKY/WX TMP DP RH WIND PRES REMARKS
AUGUSTA BUSH F CLEAR 57 44 62 W7 29.91S
AUGUSTA DANIEL CLEAR 58 42 55 NW9 29.92S
THOMSON CLEAR 55 45 70 W8 29.94S
WASHINGTON FAIR 54 45 71 W8 29.94S
CLAXTON FAIR 54 50 87 W5 29.96S
SYLVANIA CLEAR 54 48 82 CALM 29.94S
STATESBORO CLEAR 52 46 78 W3 29.95R
SAVANNAH CLEAR 55 47 74 W8 29.94S


...SOUTHERN NORTH CAROLINA...

CITY SKY/WX TMP DP RH WIND PRES REMARKS
CHARLOTTE CLOUDY 54 52 93 N5 29.88F
MONROE MOCLDY 54 51 90 N6 29.86F
WADESBORO CLOUDY 55 52 88 CALM 29.86F
ROCKINGHAM CLOUDY 58 54 84 CALM 29.85S
RUTHERFORDTON MOCLDY 50 41 71 CALM 29.91S
ASHEVILLE MOCLDY 48 41 76 N9 29.94F

$$